Location: Unspecified
(0.0000°N, 0.0000°E)
Time: 01:23:16
(UTC+00:00)

Vanguard 1 - Pass Details

Date: 24 November 2019
Orbit: 652 x 3832 km, 34.3° (Epoch: 10 December)

Event Time Altitude Azimuth Distance (km) Brightness Sun altitude
Rises 09:16:06 0° 281° (W) 6,995 14.0 47.9°
Reaches altitude 10° 09:26:25 10° 309° (NW) 5,017 13.4 50.1°
Maximum altitude 09:30:17 11° 325° (NW) 4,472 13.2 50.9°
Drops below altitude 10° 09:33:38 10° 343° (NNW) 4,205 13.1 51.6°
Sets 09:39:51 0° 15° (NNE) 4,431 13.3 52.8°
